Regional Weather Roundup
Issued by NWS Sioux Falls, SD

Home | Current Version | Previous Version | Graphics & Text | Print | Product List | Glossary Off
Versions: 1 2 3 4 5 6 7 8 9 10 11 12 13 14 15 16 17 18 19 20 21 22 23 24 25 26 27 28 29 30 31 32 33 34 35 36 37 38 39 40 41 42 43 44 45 46 47 48 49 50

000
ASUS43 KFSD 191002
RWRFSD

WEATHER ROUNDUP FOR SE SOUTH DAKOTA/SW MINNESOTA/NW IOWA
NATIONAL WEATHER SERVICE SIOUX FALLS SD
500 AM CDT SAT AUG 19 2017

NOTE: "FAIR" INDICATES FEW OR NO CLOUDS BELOW 12,000 FEET WITH NO
SIGNIFICANT WEATHER AND OR OBSTRUCTIONS TO VISIBILITY.


SDZ038>040-050-052>070-191100-
SOUTHEAST SOUTH DAKOTA

CITY           SKY/WX    TMP DP  RH WIND       PRES   REMARKS
BROOKINGS      PTCLDY    54  53  97 CALM      29.95S
CHAMBERLAIN    CLEAR     58  58  99 CALM      29.95F
HURON          CLEAR     58  56  93 S6        29.93F
MADISON        FAIR      54  54 100 CALM      29.96R
MITCHELL       CLEAR     55  54  96 CALM      29.95S
SIOUX FALLS    CLEAR     56  56 100 CALM      29.95R
WINNER         FAIR      63  57  81 S8        29.95F
$$

MNZ071-072-080-081-089-090-097-098-191100-
SOUTHWEST MINNESOTA

CITY           SKY/WX    TMP DP  RH WIND       PRES   REMARKS
FAIRMONT       FOG       54  53  97 CALM      29.95R VSB 1/4
JACKSON        FOG       52  52 100 CALM      29.92R VSB 1/4
LUVERNE        FOG       59  55  88 NE3       29.95R VSB 3/4
MARSHALL       CLEAR     54  54 100 W3        29.93S FOG
MONTEVIDEO     PTCLDY    54  54 100 CALM      29.92R FOG
PIPESTONE      CLEAR     57  55  94 CALM      29.94S
REDWOOD FALLS  FOG       57  56  96 SW3       29.92F VSB 1/4
TRACY          FOG       60  60 100 CALM      29.94S VSB<1/4
WINDOM         DRZL/FOG  55  54  94 CALM      29.95S VSB<1/4
WORTHINGTON    FOG       58  58 100 NE3       29.95F VSB 1/4
$$

IAZ001>003-012>014-020>022-031-032-NEZ013-014-SDZ071-191100-
NORTHWEST IOWA

CITY           SKY/WX    TMP DP  RH WIND       PRES   REMARKS
CHEROKEE       CLEAR     56  56 100 CALM      29.94S FOG
DENISON        CLEAR     59  57  94 CALM      29.96S
ESTHERVILLE    FOG       51  51 100 CALM      29.94R VSB 1/4
LE MARS        CLEAR     55  55 100 CALM      29.96R FOG
ORANGE CITY    MOCLDY    57  57 100 W3        29.96R FOG
SHELDON        CLEAR     54  54 100 CALM      29.93R FOG
SIOUX CITY     CLEAR     58  57  97 NW3       29.96R
SPENCER        CLEAR     54  53  97 NE6       29.94F
STORM LAKE     CLEAR     55  55 100 CALM      29.94S
$$

ABBREVIATIONS USED IN REMARKS
   TC - TEMPERATURE IN CELSIUS
  WCI - WIND CHILL INDEX
   HX - HEAT INDEX
  VSB - VISIBILITY





USA.gov is the U.S. government's official web portal to all federal, state and local government web resources and services.